{"data":{"norad_id":60543,"intl_designator":"2024-149CD","name":"ARCTIC WEATHER SATELLITE","alt_names":[],"object_type":"PAYLOAD","status":"ACTIVE","operator":null,"country":"NOR","launch_date":"2024-08-16","launch_site_code":"AFWTR","launch_vehicle":null,"mission":null,"orbit_class":"UNKNOWN","rcs_meters":null,"size_class":null,"mass_kg":null,"dimensions":null,"purposes":[],"wikipedia_slug":null,"has_3d_model":false,"image_url":null,"decayed_at":null,"tle_current":{"epoch":"2026-05-25T04:24:04.067424Z","epoch_age_seconds":53161,"freshness":"FRESH","line1":"1 60543U 24149CD  26145.18338041  .00000674  00000+0  75864-4 0  9994","line2":"2 60543  97.6806 216.3055 0002652 150.2093 209.9276 14.89810920 95879","mean_motion":14.8981092,"eccentricity":0.0002652,"inclination_deg":97.6806,"raan_deg":216.3055,"arg_perigee_deg":150.2093,"mean_anomaly_deg":209.9276,"bstar":7.5864e-5,"rev_number":9587,"period_min":96.656560954728,"perigee_km":596.67568931077,"apogee_km":600.3761113131,"semimajor_km":6976.6629003119,"source":"CELESTRAK","updated_at":"2026-05-25T13:38:02.149818Z"}}}